Location: Newark
(33.6333°S, 78.8500°W)
Time: 06:15:07
(UTC+00:00)

Tiros 1 despin weight - Pass Details

Date: 28 September 2019
Orbit: 593 x 643 km, 48.2° (Epoch: 19 October)

Event Time Altitude Azimuth Distance (km) Brightness Sun altitude
Rises 02:04:29 0° 304° (WNW) 2,834 ? -34.5°
Enters shadow 02:05:33 - 303° (WNW) 2,414 ? -34.6°
Reaches altitude 10° 02:06:45 10° 301° (WNW) 1,942 - -34.9°
Maximum altitude 02:11:13 71° 216° (SW) 650 - -35.7°
Drops below altitude 10° 02:15:46 10° 132° (SE) 1,988 - -36.5°
Sets 02:18:07 0° 130° (SE) 2,907 - -36.9°
